Kansas City International Airport Airport (MCI)

 

Airport Diagram
Current Weather/Forecast (MVFR Conditions)
METAR KMCI 282053Z 36019G30KT 10SM -RA BKN014 BKN049 OVC055 08/08 A2963 RMK AO2 PK WND 34034/2027 SLP033 P0003 60008 T00830078 53016
TAF KMCI 281729Z 2818/2918 36018G30KT 6SM -RA BKN015 OVC030 FM290200 35016G25KT 5SM -SHRA OVC010 FM291400 35017G30KT P6SM VCSH SCT015 BKN035

All Charts
General
Chart Name Download
AIRPORT DIAGRAM
TAKEOFF MINIMUMS
ALTERNATE MINIMUMS
HOT SPOT

Departures
Chart Name Download
CHIEF SEVEN
LAKES THREE
RACER SEVEN
ROYAL NINE
TIFTO SIX
WILDCAT FIVE

Arrivals
Chart Name Download
BRAYMER SEVEN
BRAYMER SEVEN, CONT.1
JHAWK SIX
JHAWK SIX, CONT.1
JSONN ONE (RNAV)
JSONN ONE (RNAV), CONT.1
TYGER SIX
TYGER SIX, CONT.1

Approaches
Chart Name Download
ILS OR LOC RWY 01L
ILS OR LOC RWY 01R
ILS OR LOC RWY 09
ILS OR LOC RWY 19L
ILS OR LOC RWY 19R
ILS OR LOC RWY 27
ILS RWY 01R (SA CAT I)
ILS RWY 19R (SA CAT I)
ILS RWY 01R (CAT II - III)
ILS RWY 19R (CAT II - III)
RNAV (RNP) Z RWY 01L
RNAV (RNP) Z RWY 01R
RNAV (RNP) Z RWY 09
RNAV (RNP) Z RWY 19L
RNAV (RNP) Z RWY 19R
RNAV (RNP) Z RWY 27
RNAV (GPS) Y RWY 01L
RNAV (GPS) Y RWY 01R
RNAV (GPS) Y RWY 09
RNAV (GPS) Y RWY 19L
RNAV (GPS) Y RWY 19R
RNAV (GPS) Y RWY 27